Weather History for Devils Lake, ND

Change the Weather History Date:

Thursday, July 18, 2013

  Actual Average Record
Temperature  
Mean Temperature 72 °F -  
Max Temperature 82 °F 80 °F 100 °F (1974)
Min Temperature 62 °F 58 °F 47 °F (1951)
Cooling Degree Days 7    
Growing Degree Days 22 (Base 50)    
Moisture  
Dew Point 59 °F    
Average Humidity 63    
Maximum Humidity 82    
Minimum Humidity 47    
Precipitation  
Precipitation 0.08 in - - ()
Sea Level Pressure  
Sea Level Pressure 29.84 in    
Wind  
Wind Speed 11 mph (NW)    
Max Wind Speed 28 mph    
Max Gust Speed 34 mph    
Visibility 10 miles    
Events      
Averages and records for this station are not official NWS values.
T = Trace of Precipitation, MM = Missing Value Source: NWS Daily Summary

Daily Weather History Graph

Daily Weather History Graph

Search for Another Location

Airport:

Trip Planner

Search our weather history database for the weather conditions in past years. The results will help you decide how hot, cold, wet, or windy it might be!

Date:

Astronomy

Jul. 18, 2013 Rise Set
Actual Time 5:54 AM CDT 9:28 PM CDT
Civil Twilight 5:15 AM CDT 10:07 PM CDT
Nautical Twilight 4:23 AM CDT 10:58 PM CDT
Astronomical Twilight 3:12 AM CDT 12:09 AM CDT
Moon 5:24 PM CDT (7/18) 1:51 AM CDT (7/18)
Length of Visible Light 16h 51m
Length of Day
15h 33m
Waxing Gibbous, 77% of the Moon is Illuminated
Jul 18
Waxing Gibbous
Jul 22
Full
Jul 29
Last Quarter
Aug 6
New
Aug 14
First Quarter

Hourly Weather History & Observations

Time (CDT) Temp. Heat Index Dew Point Humidity Pressure Visibility Wind Dir Wind Speed Gust Speed Precip Events Conditions
12:15 AM 64.4 °F - 53.6 °F 68% 30.05 in 10.0 mi ESE 10.4 mph 16.1 mph N/A   Scattered Clouds
12:35 AM 64.4 °F - 53.6 °F 68% 30.03 in 10.0 mi ESE 10.4 mph - N/A   Scattered Clouds
12:55 AM 64.4 °F - 53.6 °F 68% 30.02 in 10.0 mi East 10.4 mph - N/A   Partly Cloudy
1:15 AM 64.4 °F - 53.6 °F 68% 30.01 in 10.0 mi ESE 11.5 mph - N/A   Clear
1:35 AM 64.4 °F - 51.8 °F 64% 30.00 in 10.0 mi ESE 6.9 mph - N/A   Clear
1:55 AM 64.4 °F - 53.6 °F 68% 29.99 in 10.0 mi ESE 6.9 mph - N/A   Clear
2:15 AM 66.2 °F - 53.6 °F 64% 29.98 in 10.0 mi ESE 9.2 mph - N/A   Clear
2:35 AM 66.2 °F - 53.6 °F 64% 29.97 in 10.0 mi ESE 11.5 mph - N/A   Scattered Clouds
2:55 AM 66.2 °F - 53.6 °F 64% 29.96 in 10.0 mi ESE 9.2 mph - N/A   Partly Cloudy
3:15 AM 66.2 °F - 53.6 °F 64% 29.95 in 10.0 mi SE 8.1 mph - N/A   Clear
3:35 AM 66.2 °F - 53.6 °F 64% 29.94 in 10.0 mi ESE 9.2 mph - N/A   Clear
3:55 AM 66.2 °F - 55.4 °F 68% 29.93 in 10.0 mi East 6.9 mph - N/A   Clear
4:15 AM 64.4 °F - 53.6 °F 68% 29.93 in 10.0 mi East 5.8 mph - N/A   Clear
4:35 AM 64.4 °F - 55.4 °F 73% 29.91 in 10.0 mi ENE 5.8 mph - N/A   Clear
4:55 AM 62.6 °F - 55.4 °F 77% 29.90 in 10.0 mi East 6.9 mph - N/A   Clear
5:15 AM 62.6 °F - 57.2 °F 82% 29.91 in 10.0 mi East 9.2 mph - N/A   Clear
5:35 AM 64.4 °F - 57.2 °F 77% 29.91 in 10.0 mi ENE 12.7 mph - N/A   Mostly Cloudy
5:55 AM 62.6 °F - 57.2 °F 82% 29.90 in 5.0 mi East 13.8 mph - N/A   Overcast
6:15 AM 62.6 °F - 57.2 °F 82% 29.89 in 10.0 mi East 13.8 mph - N/A   Overcast
6:35 AM 62.6 °F - 55.4 °F 77% 29.89 in 10.0 mi ESE 15.0 mph - N/A   Overcast
6:55 AM 62.6 °F - 55.4 °F 77% 29.91 in 10.0 mi NNE 8.1 mph - N/A   Overcast
7:15 AM 62.6 °F - 55.4 °F 77% 29.89 in 10.0 mi ENE 10.4 mph - N/A   Overcast
7:35 AM 62.6 °F - 55.4 °F 77% 29.89 in 10.0 mi ENE 11.5 mph - N/A   Overcast
7:55 AM 62.6 °F - 55.4 °F 77% 29.89 in 10.0 mi NE 11.5 mph - N/A   Overcast
8:15 AM 62.6 °F - 55.4 °F 77% 29.88 in 10.0 mi East 11.5 mph - N/A   Overcast
8:35 AM 64.4 °F - 55.4 °F 73% 29.87 in 10.0 mi East 11.5 mph - N/A   Overcast
8:55 AM 64.4 °F - 55.4 °F 73% 29.87 in 10.0 mi East 13.8 mph - N/A   Overcast
9:15 AM 64.4 °F - 57.2 °F 77% 29.86 in 9.0 mi East 12.7 mph - N/A   Overcast
9:35 AM 66.2 °F - 57.2 °F 73% 29.85 in 10.0 mi ESE 12.7 mph - 0.07 in   Overcast
9:55 AM 68.0 °F - 59.0 °F 73% 29.84 in 7.0 mi North - - 0.08 in   Overcast
10:15 AM 69.8 °F - 60.8 °F 73% 29.83 in 10.0 mi SE 8.1 mph - N/A   Scattered Clouds
10:35 AM 71.6 °F - 60.8 °F 69% 29.83 in 10.0 mi SSE 9.2 mph - N/A   Clear
11:15 AM - - - N/A% - 0.5 mi North - - N/A   Unknown
11:35 AM 73.4 °F - 60.8 °F 65% 29.82 in - SSW 4.6 mph - N/A   Clear
11:55 AM 75.2 °F - 60.8 °F 61% 29.81 in 10.0 mi West 6.9 mph - N/A   Clear
12:15 PM 75.2 °F - 60.8 °F 61% 29.81 in 8.0 mi SW 8.1 mph - N/A   Clear
12:35 PM 75.2 °F - 62.6 °F 65% 29.81 in 10.0 mi West 10.4 mph - N/A   Clear
12:55 PM 75.2 °F - 62.6 °F 65% 29.81 in 10.0 mi WNW 9.2 mph - N/A   Clear
1:15 PM 75.2 °F - 62.6 °F 65% 29.81 in 10.0 mi NW 11.5 mph - N/A   Clear
1:35 PM 75.2 °F - 62.6 °F 65% 29.81 in 10.0 mi WNW 11.5 mph - N/A   Partly Cloudy
1:55 PM 78.8 °F - 62.6 °F 57% 29.80 in 10.0 mi NNW 8.1 mph - N/A   Partly Cloudy
2:15 PM 78.8 °F - 62.6 °F 57% 29.80 in 10.0 mi WNW 11.5 mph - N/A   Partly Cloudy
2:35 PM 78.8 °F - 62.6 °F 57% 29.79 in 10.0 mi West 11.5 mph 18.4 mph N/A   Clear
2:55 PM 80.6 °F 81.8 °F 62.6 °F 54% 29.78 in 10.0 mi WNW 11.5 mph - N/A   Clear
3:15 PM 80.6 °F 81.8 °F 62.6 °F 54% 29.78 in 10.0 mi WNW 11.5 mph 19.6 mph N/A   Clear
3:35 PM 80.6 °F 81.8 °F 62.6 °F 54% 29.78 in 10.0 mi WNW 11.5 mph - N/A   Clear
3:55 PM 80.6 °F 81.8 °F 62.6 °F 54% 29.77 in 10.0 mi West 9.2 mph 19.6 mph N/A   Partly Cloudy
4:15 PM 80.6 °F 81.8 °F 62.6 °F 54% 29.77 in 10.0 mi WNW 13.8 mph - N/A   Partly Cloudy
4:35 PM 80.6 °F 82.3 °F 64.4 °F 58% 29.77 in 10.0 mi West 11.5 mph - N/A   Clear
4:55 PM 80.6 °F 81.8 °F 62.6 °F 54% 29.76 in 10.0 mi West 15.0 mph 18.4 mph N/A   Clear
5:15 PM 82.4 °F 83.4 °F 62.6 °F 51% 29.76 in 10.0 mi West 15.0 mph - N/A   Clear
5:35 PM 82.4 °F 83.4 °F 62.6 °F 51% 29.75 in 10.0 mi West 16.1 mph - N/A   Clear
5:55 PM 82.4 °F 83.4 °F 62.6 °F 51% 29.75 in 10.0 mi West 16.1 mph - N/A   Partly Cloudy
6:15 PM 82.4 °F 83.4 °F 62.6 °F 51% 29.74 in 10.0 mi West 16.1 mph 20.7 mph N/A   Partly Cloudy
6:35 PM 82.4 °F 83.4 °F 62.6 °F 51% 29.73 in 10.0 mi WNW 13.8 mph - N/A   Clear
6:55 PM 82.4 °F 83.4 °F 62.6 °F 51% 29.73 in 10.0 mi West 11.5 mph - N/A   Clear
7:15 PM 82.4 °F 83.9 °F 64.4 °F 54% 29.73 in 10.0 mi West 15.0 mph - N/A   Clear
7:35 PM 82.4 °F 83.9 °F 64.4 °F 54% 29.73 in 10.0 mi West 15.0 mph - N/A   Clear
7:55 PM 82.4 °F 83.9 °F 64.4 °F 54% 29.72 in 10.0 mi West 9.2 mph - N/A   Scattered Clouds
8:15 PM 82.4 °F 83.9 °F 64.4 °F 54% 29.73 in 10.0 mi WNW 12.7 mph - N/A   Mostly Cloudy
8:35 PM 82.4 °F 83.4 °F 62.6 °F 51% 29.73 in 10.0 mi West 16.1 mph 19.6 mph N/A   Clear
8:55 PM 80.6 °F 81.5 °F 60.8 °F 51% 29.72 in 10.0 mi West 13.8 mph - N/A   Clear
9:15 PM 78.8 °F - 60.8 °F 54% 29.72 in 10.0 mi West 12.7 mph - N/A   Clear
9:35 PM 78.8 °F - 59.0 °F 51% 29.73 in 10.0 mi West 13.8 mph - N/A   Partly Cloudy
9:55 PM 78.8 °F - 59.0 °F 51% 29.74 in 10.0 mi WNW 27.6 mph 34.5 mph N/A   Scattered Clouds
10:15 PM 77.0 °F - 55.4 °F 47% 29.75 in 10.0 mi NW 20.7 mph 28.8 mph N/A   Partly Cloudy
10:35 PM 75.2 °F - 55.4 °F 50% 29.76 in 10.0 mi NW 21.9 mph 28.8 mph N/A   Clear
10:55 PM 73.4 °F - 55.4 °F 53% 29.77 in 10.0 mi NW 19.6 mph - N/A   Clear
11:15 PM 73.4 °F - 57.2 °F 57% 29.77 in 10.0 mi NW 17.3 mph 25.3 mph N/A   Partly Cloudy
11:35 PM 71.6 °F - 57.2 °F 60% 29.78 in 10.0 mi NW 18.4 mph 25.3 mph N/A   Partly Cloudy
11:55 PM 71.6 °F - 55.4 °F 57% 29.78 in 10.0 mi NW 16.1 mph 24.2 mph N/A   Mostly Cloudy